Weather observations for the past three days for
Tallahassee International Airport
Imperial (Metric)
Date Time (edt) Wind (mph) Vis. (mi.) Weather Sky Cond. Temperature (ºF) Relative Humidity Wind Chill (°F) Heat Index (°F) Pressure Precipitation (in)
Air Dwpt 6 hour altimeter (in) sea level (mb) 1 hr 3 hr 6 hr
Max. Min.
22 23:53 W 5 10.00 Fair CLR 82 73.9 77% 88 30.01 1016.2
22 22:53 SW 3 10.00 Partly Cloudy FEW060 SCT250 84 73.9 72% 91 30 1015.9
22 21:53 SW 8 10.00 Partly Cloudy FEW060 FEW085 SCT250 84.9 73 68% 92 29.99 1015.5
22 20:53 S 6 10.00 Partly Cloudy FEW060CB SCT080 SCT110 87.1 73 63% 95 29.99 1015.3
22 19:53 S 13 10.00 Mostly Cloudy FEW060TCU FEW080 SCT110 BKN160 91 72 100 91 54% 99 29.97 1014.8
22 18:53 S 7 10.00 Mostly Cloudy FEW060TCU SCT075 BKN120 95 73 49% 105 29.95 1013.9
22 17:53 N 5 10.00 Mostly Cloudy SCT065 BKN140 99 64 32% 102 29.94 1013.8
22 16:53 NE 3 10.00 Partly Cloudy FEW060 SCT130 SCT250 96.1 66 37% 100 29.95 1014.2
22 15:53 Vrbl 5 10.00 Partly Cloudy SCT065 SCT150 98.1 66 35% 102 29.97 1014.8
22 14:53 Vrbl 6 10.00 Partly Cloudy SCT060 SCT200 98.1 66.9 36% 103 30 1015.6
22 13:53 W 8 10.00 Partly Cloudy SCT055 SCT200 96.1 68 97 80.1 40% 101 30.02 1016.5
22 12:53 Calm 10.00 Partly Cloudy FEW060 SCT250 96.1 66.9 39% 100 30.06 1017.8
22 11:53 Calm 10.00 Partly Cloudy FEW055 SCT250 95 69.1 43% 101 30.08 1018.6
22 10:53 Calm 10.00 Partly Cloudy SCT250 91 71.1 52% 98 30.09 1018.7
22 09:53 Calm 10.00 Partly Cloudy SCT075 SCT090 SCT250 88 72 59% 95 30.09 1018.9
22 08:53 Vrbl 3 10.00 Partly Cloudy SCT070 SCT250 84.9 72 65% 91 30.1 1019.0
22 07:53 Calm 10.00 A Few Clouds FEW160 FEW250 80.1 70 80.1 72 71% 83 30.08 1018.6
22 06:53 Calm 10.00 A Few Clouds FEW250 75 69.1 82% 75 30.06 1017.8
22 05:53 NW 3 10.00 Fair CLR 73 66.9 81% 30.04 1017.1
22 04:53 N 3 10.00 Fair CLR 75 68 79% 76 30.04 1017.2
22 03:53 Calm 10.00 Fair CLR 73.9 66.9 79% 30.05 1017.4
22 02:53 Calm 10.00 Fair CLR 75.9 68 77% 77 30.06 1017.9
22 01:53 Calm 10.00 Fair CLR 75 66.9 93 73.9 76% 76 30.07 1018.0
22 00:53 Calm 10.00 Fair CLR 75.9 66.9 74% 77 30.08 1018.5
21 23:53 Calm 10.00 Fair CLR 77 68 74% 79 30.08 1018.4
21 22:53 Calm 10.00 Fair CLR 81 66.9 62% 83 30.07 1018.0
21 21:53 N 3 10.00 Fair CLR 86 66 51% 88 30.05 1017.5
21 20:53 N 5 10.00 A Few Clouds FEW065 89.1 64.9 45% 91 30.04 1017.1
21 19:53 N 7 10.00 A Few Clouds FEW065 93 64 96.1 90 38% 95 30.04 1017.1
21 18:53 NE 8 10.00 A Few Clouds FEW075 93.9 62.1 35% 95 30.03 1016.9
21 17:53 NE 6 10.00 A Few Clouds FEW075 95 62.1 34% 96 30.04 1017.0
21 16:53 N 7 10.00 A Few Clouds FEW075 95 61 32% 95 30.06 1017.6
21 15:53 NE 9 G 17 10.00 A Few Clouds FEW075 93 62.1 36% 94 30.08 1018.4
21 14:53 SE 6 10.00 A Few Clouds FEW070 91.9 61 36% 92 30.09 1018.9
21 13:53 NE 6 10.00 A Few Clouds FEW060 91 63 91 73.9 39% 92 30.12 1019.7
21 12:53 NE 9 10.00 Partly Cloudy SCT041 89.1 64.9 45% 91 30.13 1020.2
21 11:53 NE 8 G 17 10.00 Partly Cloudy SCT036 86 64 48% 87 30.15 1020.7
21 10:53 NE 10 10.00 Partly Cloudy SCT029 84.9 66.9 55% 88 30.15 1020.8
21 09:53 NE 10 10.00 A Few Clouds FEW029 81 66.9 62% 83 30.15 1020.8
21 08:53 NE 9 10.00 Fair CLR 79 68 69% 81 30.16 1021.2
21 07:53 N 6 10.00 Fair CLR 73.9 66.9 78.1 70 79% 30.17 1021.6
21 06:53 Calm 10.00 Fair CLR 71.1 66 84% 30.16 1021.2
21 05:53 NE 3 10.00 Fair CLR 73 66 79% 30.14 1020.7
21 04:53 NE 6 10.00 Fair CLR 75 66 74% 76 30.14 1020.4
21 02:53 E 6 10.00 Fair CLR 77 66 69% 79 30.16 1021.2
21 01:53 E 8 10.00 Fair CLR 78.1 64.9 90 78.1 64% 80 30.16 1021.3
21 00:53 E 9 10.00 Fair CLR 80.1 66 62% 82 30.17 1021.6
20 23:53 E 12 10.00 Partly Cloudy SCT075 82 66 58% 84 30.17 1021.6
20 22:53 E 13 10.00 Partly Cloudy FEW100 SCT250 84 64 51% 85 30.15 1020.9
20 21:53 E 14 10.00 Partly Cloudy FEW100 SCT250 86 63 46% 87 30.14 1020.4
20 20:53 E 7 10.00 Partly Cloudy FEW070 SCT200 88 63 43% 89 30.12 1019.7
20 19:53 NE 12 10.00 Partly Cloudy FEW060 SCT200 91 63 95 91 39% 92 30.1 1019.0
20 18:53 E 9 10.00 Partly Cloudy SCT060 SCT085 93 64.9 40% 95 30.09 1018.9
20 17:53 E 13 10.00 Partly Cloudy SCT055 93.9 66 40% 97 30.1 1019.1
20 16:53 NE 13 G 20 10.00 Partly Cloudy SCT050TCU 93 66.9 42% 97 30.11 1019.6
20 15:53 E 14 10.00 Partly Cloudy SCT050TCU 93 68 44% 97 30.12 1019.8
20 14:53 NE 14 G 22 10.00 Mostly Cloudy SCT040 BKN080 91.9 69.1 47% 97 30.14 1020.6
20 13:53 NE 16 G 25 10.00 Mostly Cloudy SCT050 BKN065 91 68 91 75.9 47% 95 30.16 1021.1
20 12:53 NE 13 10.00 Mostly Cloudy SCT033 BKN060 88 70 55% 93 30.18 1021.9
20 11:53 E 16 G 23 10.00 Mostly Cloudy SCT030 BKN043 88 71.1 57% 94 30.18 1022.0
20 10:53 E 10 10.00 Mostly Cloudy FEW025 BKN065 BKN095 84.9 72 65% 91 30.19 1022.1
20 09:53 E 10 G 22 10.00 Overcast SCT018 BKN065 OVC080 82 71.1 69% 86 30.19 1022.0
20 08:53 E 13 10.00 Overcast BKN055 OVC080 77 71.1 82% 79 30.17 1021.4
20 07:53 E 6 10.00 Overcast SCT039 OVC050 75.9 70 78.1 73.9 82% 77 30.15 1021.0
20 06:53 E 9 8.00 Overcast BKN020 OVC033 75 69.1 82% 75 30.14 1020.5
20 05:53 NE 6 10.00 Overcast SCT030 OVC049 75.9 66.9 74% 77 30.12 1019.8
20 04:53 NE 3 10.00 Fair CLR 75 66.9 76% 76 30.11 1019.5
20 03:53 NE 6 10.00 Fair CLR 75 66.9 76% 76 30.11 1019.5
20 02:53 NE 7 10.00 Fair CLR 75.9 66.9 74% 77 30.12 1019.8
20 01:53 E 7 10.00 Fair CLR 78.1 66 89.1 78.1 67% 80 30.14 1020.6
20 00:53 E 10 G 21 10.00 Fair CLR 79 64.9 62% 81 30.13 1020.3
Date Time (edt) Wind (mph) Vis. (mi.) Weather Sky Cond. Air Dwpt Max. Min. Relative Humidity Wind Chill (°F) Heat Index (°F) altimeter (in) sea level (mb) 1 hr 3 hr 6 hr
6 hour
Temperature (ºF) Pressure Precipitation (in)